Time,TemperatureF,DewpointF,PressureIn,WindDirection,WindDirectionDegrees,WindSpeedMPH,WindSpeedGustMPH,Humidity,HourlyPrecipIn,Conditions,Clouds,dailyrainin,SolarRadiationWatts/m^2,SoftwareType,DateUTC
2016-02-10 00:03:00,4.0,-99.9,29.94,WNW,292,0.0,0.0,255,0.00,,,0.00,0,Wunderground v.1.15,2016-02-10 06:03:00,
2016-02-10 00:08:00,4.0,-99.9,29.94,WNW,295,0.0,0.0,255,0.00,,,0.00,0,Wunderground v.1.15,2016-02-10 06:08:00,
2016-02-10 00:14:00,4.1,-99.9,29.94,WNW,295,0.0,0.0,255,0.00,,,0.00,0,Wunderground v.1.15,2016-02-10 06:14:00,
2016-02-10 00:20:00,4.0,-99.9,29.95,WNW,295,0.0,0.0,255,0.00,,,0.00,0,Wunderground v.1.15,2016-02-10 06:20:00,
2016-02-10 00:26:00,3.8,-99.9,29.94,WNW,296,0.0,0.0,255,0.00,,,0.00,0,Wunderground v.1.15,2016-02-10 06:26:00,
2016-02-10 00:31:00,3.5,-99.9,29.94,WNW,296,0.0,0.0,255,0.00,,,0.00,0,Wunderground v.1.15,2016-02-10 06:31:00,
2016-02-10 00:43:00,3.1,-99.9,29.95,WNW,296,0.0,0.0,255,0.00,,,0.00,0,Wunderground v.1.15,2016-02-10 06:43:00,
2016-02-10 00:49:00,3.1,-99.9,29.94,WNW,296,0.0,0.0,255,0.00,,,0.00,0,Wunderground v.1.15,2016-02-10 06:49:00,
2016-02-10 00:54:00,3.2,-99.9,29.95,WNW,296,0.0,0.0,255,0.00,,,0.00,0,Wunderground v.1.15,2016-02-10 06:54:00,
2016-02-10 01:06:00,3.0,-99.9,29.93,WNW,296,0.0,0.0,255,0.00,,,0.00,0,Wunderground v.1.15,2016-02-10 07:06:00,
2016-02-10 01:12:00,3.0,-99.9,29.94,WNW,295,0.0,0.0,255,0.00,,,0.00,0,Wunderground v.1.15,2016-02-10 07:12:00,
2016-02-10 01:17:00,3.0,-99.9,29.93,WNW,296,0.0,0.0,255,0.00,,,0.00,0,Wunderground v.1.15,2016-02-10 07:17:00,
2016-02-10 01:29:00,2.7,-99.9,29.93,WNW,296,0.0,0.0,255,0.00,,,0.00,0,Wunderground v.1.15,2016-02-10 07:29:00,
2016-02-10 01:36:00,2.6,-99.9,29.93,WNW,296,0.0,0.0,255,0.00,,,0.00,0,Wunderground v.1.15,2016-02-10 07:36:00,
2016-02-10 01:41:00,2.3,-99.9,29.93,WNW,296,0.0,0.0,255,0.00,,,0.00,0,Wunderground v.1.15,2016-02-10 07:41:00,
2016-02-10 01:47:00,2.2,-99.9,29.93,WNW,296,0.0,0.0,255,0.00,,,0.00,0,Wunderground v.1.15,2016-02-10 07:47:00,
2016-02-10 01:53:00,1.9,-99.9,29.92,WNW,296,0.0,0.0,255,0.00,,,0.00,0,Wunderground v.1.15,2016-02-10 07:53:00,
2016-02-10 01:59:00,1.8,-99.9,29.93,WNW,296,0.0,0.0,255,0.00,,,0.00,0,Wunderground v.1.15,2016-02-10 07:59:00,
2016-02-10 02:04:00,1.7,-99.9,29.92,WNW,296,0.0,0.0,255,0.00,,,0.00,0,Wunderground v.1.15,2016-02-10 08:04:00,
2016-02-10 02:09:00,1.6,-99.9,29.92,WNW,296,0.0,0.0,255,0.00,,,0.00,0,Wunderground v.1.15,2016-02-10 08:09:00,
2016-02-10 02:14:00,1.6,-99.9,29.92,WNW,296,0.0,0.0,255,0.00,,,0.00,0,Wunderground v.1.15,2016-02-10 08:14:00,
2016-02-10 02:19:00,1.6,-99.9,29.92,WNW,296,0.0,0.0,255,0.00,,,0.00,0,Wunderground v.1.15,2016-02-10 08:19:00,
2016-02-10 02:24:00,1.5,-99.9,29.93,WNW,296,0.0,0.0,255,0.00,,,0.00,0,Wunderground v.1.15,2016-02-10 08:24:00,
2016-02-10 02:29:00,1.5,-99.9,29.93,WNW,296,0.0,0.0,255,0.00,,,0.00,0,Wunderground v.1.15,2016-02-10 08:29:00,
2016-02-10 02:34:00,1.5,-99.9,29.93,WNW,296,0.0,0.0,255,0.00,,,0.00,0,Wunderground v.1.15,2016-02-10 08:34:00,
2016-02-10 02:39:00,1.4,-99.9,29.92,WNW,296,0.0,0.0,255,0.00,,,0.00,0,Wunderground v.1.15,2016-02-10 08:39:00,
2016-02-10 02:44:00,1.4,-99.9,29.92,WNW,296,0.0,0.0,255,0.00,,,0.00,0,Wunderground v.1.15,2016-02-10 08:44:00,
2016-02-10 02:49:00,1.3,-99.9,29.93,WNW,296,0.0,0.0,255,0.00,,,0.00,0,Wunderground v.1.15,2016-02-10 08:49:00,
2016-02-10 02:54:00,1.2,-99.9,29.92,WNW,296,0.0,0.0,255,0.00,,,0.00,0,Wunderground v.1.15,2016-02-10 08:54:00,
2016-02-10 02:59:00,1.1,-99.9,29.93,WNW,296,0.0,0.0,255,0.00,,,0.00,0,Wunderground v.1.15,2016-02-10 08:59:00,
2016-02-10 03:04:00,1.0,-99.9,29.92,WNW,296,0.0,0.0,255,0.00,,,0.00,0,Wunderground v.1.15,2016-02-10 09:04:00,
2016-02-10 03:09:00,1.0,-99.9,29.93,WNW,296,0.0,0.0,255,0.00,,,0.00,0,Wunderground v.1.15,2016-02-10 09:09:00,
2016-02-10 03:14:00,0.9,-99.9,29.93,WNW,296,0.0,0.0,255,0.00,,,0.00,0,Wunderground v.1.15,2016-02-10 09:14:00,
2016-02-10 03:19:00,0.9,-99.9,29.92,WNW,296,0.0,0.0,255,0.00,,,0.00,0,Wunderground v.1.15,2016-02-10 09:19:00,
2016-02-10 03:24:00,0.9,-99.9,29.92,WNW,296,0.0,0.0,255,0.00,,,0.00,0,Wunderground v.1.15,2016-02-10 09:24:00,
2016-02-10 03:29:00,0.9,-99.9,29.92,WNW,296,0.0,0.0,255,0.00,,,0.00,0,Wunderground v.1.15,2016-02-10 09:29:00,
2016-02-10 03:34:00,0.9,-99.9,29.92,WNW,296,0.0,0.0,255,0.00,,,0.00,0,Wunderground v.1.15,2016-02-10 09:34:00,
2016-02-10 03:39:00,0.9,-99.9,29.91,WNW,296,0.0,0.0,255,0.00,,,0.00,0,Wunderground v.1.15,2016-02-10 09:39:00,
2016-02-10 03:44:00,0.9,-99.9,29.92,WNW,296,0.0,0.0,255,0.00,,,0.00,0,Wunderground v.1.15,2016-02-10 09:44:00,
2016-02-10 03:49:00,0.8,-99.9,29.92,WNW,296,0.0,0.0,255,0.00,,,0.00,0,Wunderground v.1.15,2016-02-10 09:49:00,
2016-02-10 03:54:00,0.9,-99.9,29.92,WNW,296,0.0,0.0,255,0.00,,,0.00,0,Wunderground v.1.15,2016-02-10 09:54:00,
2016-02-10 03:59:00,0.8,-99.9,29.92,WNW,296,0.0,0.0,255,0.00,,,0.00,0,Wunderground v.1.15,2016-02-10 09:59:00,
2016-02-10 04:10:00,0.9,-99.9,29.91,WNW,296,0.0,0.0,255,0.00,,,0.00,0,Wunderground v.1.15,2016-02-10 10:10:00,
2016-02-10 04:15:00,1.0,-99.9,29.92,WNW,296,0.0,0.0,255,0.00,,,0.00,0,Wunderground v.1.15,2016-02-10 10:15:00,
2016-02-10 04:20:00,1.0,-99.9,29.92,WNW,296,0.0,0.0,255,0.00,,,0.00,0,Wunderground v.1.15,2016-02-10 10:20:00,
2016-02-10 04:25:00,1.1,-99.9,29.92,WNW,296,0.0,0.0,255,0.00,,,0.00,0,Wunderground v.1.15,2016-02-10 10:25:00,
2016-02-10 04:30:00,1.0,-99.9,29.92,WNW,296,0.0,0.0,255,0.00,,,0.00,0,Wunderground v.1.15,2016-02-10 10:30:00,
2016-02-10 04:40:00,1.2,-99.9,29.91,WNW,296,0.0,0.0,255,0.00,,,0.00,0,Wunderground v.1.15,2016-02-10 10:40:00,
2016-02-10 04:45:00,1.2,-99.9,29.91,WNW,296,0.0,0.0,255,0.00,,,0.00,0,Wunderground v.1.15,2016-02-10 10:45:00,
2016-02-10 04:50:00,1.2,-99.9,29.92,WNW,296,0.0,0.0,255,0.00,,,0.00,0,Wunderground v.1.15,2016-02-10 10:50:00,
2016-02-10 05:00:00,1.3,-99.9,29.91,WNW,296,0.0,0.0,255,0.00,,,0.00,0,Wunderground v.1.15,2016-02-10 11:00:00,
2016-02-10 05:05:00,1.2,-99.9,29.91,WNW,296,0.0,0.0,255,0.00,,,0.00,0,Wunderground v.1.15,2016-02-10 11:05:00,
2016-02-10 05:10:00,1.2,-99.9,29.91,WNW,296,0.0,0.0,255,0.00,,,0.00,0,Wunderground v.1.15,2016-02-10 11:10:00,
2016-02-10 05:15:00,1.0,-99.9,29.91,WNW,296,0.0,0.0,255,0.00,,,0.00,0,Wunderground v.1.15,2016-02-10 11:15:00,
2016-02-10 05:20:00,0.9,-99.9,29.91,WNW,296,0.0,0.0,255,0.00,,,0.00,0,Wunderground v.1.15,2016-02-10 11:20:00,
2016-02-10 05:25:00,0.8,-99.9,29.91,WNW,296,0.0,0.0,255,0.00,,,0.00,0,Wunderground v.1.15,2016-02-10 11:25:00,
2016-02-10 05:30:00,0.7,-99.9,29.91,WNW,296,0.0,0.0,255,0.00,,,0.00,0,Wunderground v.1.15,2016-02-10 11:30:00,
2016-02-10 05:35:00,0.4,-99.9,29.91,WNW,296,0.0,0.0,255,0.00,,,0.00,0,Wunderground v.1.15,2016-02-10 11:35:00,
2016-02-10 05:40:00,0.0,-99.9,29.91,WNW,296,0.0,0.0,255,0.00,,,0.00,0,Wunderground v.1.15,2016-02-10 11:40:00,
2016-02-10 05:50:00,-0.4,-99.9,29.91,WNW,296,0.0,0.0,255,0.00,,,0.00,0,Wunderground v.1.15,2016-02-10 11:50:00,
2016-02-10 05:55:00,-0.3,-99.9,29.91,WNW,296,0.0,0.0,255,0.00,,,0.00,0,Wunderground v.1.15,2016-02-10 11:55:00,
2016-02-10 06:00:00,-0.2,-99.9,29.91,WNW,296,0.0,0.0,255,0.00,,,0.00,0,Wunderground v.1.15,2016-02-10 12:00:00,
2016-02-10 06:05:00,-0.2,-99.9,29.92,WNW,296,0.0,0.0,255,0.00,,,0.00,0,Wunderground v.1.15,2016-02-10 12:05:00,
2016-02-10 06:10:00,0.1,-99.9,29.92,WNW,296,0.0,0.0,255,0.00,,,0.00,0,Wunderground v.1.15,2016-02-10 12:10:00,
2016-02-10 06:15:00,0.3,-99.9,29.91,WNW,296,0.0,0.0,255,0.00,,,0.00,0,Wunderground v.1.15,2016-02-10 12:15:00,
2016-02-10 06:20:00,0.4,-99.9,29.91,WNW,296,0.0,0.0,255,0.00,,,0.00,0,Wunderground v.1.15,2016-02-10 12:20:00,
2016-02-10 06:25:00,0.5,-99.9,29.91,WNW,296,0.0,0.0,255,0.00,,,0.00,0,Wunderground v.1.15,2016-02-10 12:25:00,
2016-02-10 06:30:00,0.5,-99.9,29.91,WNW,296,0.0,0.0,255,0.00,,,0.00,0,Wunderground v.1.15,2016-02-10 12:30:00,
2016-02-10 06:35:00,0.6,-99.9,29.91,WNW,296,0.0,0.0,255,0.00,,,0.00,0,Wunderground v.1.15,2016-02-10 12:35:00,
2016-02-10 06:40:00,0.6,-99.9,29.91,WNW,296,0.0,0.0,255,0.00,,,0.00,0,Wunderground v.1.15,2016-02-10 12:40:00,
2016-02-10 06:45:00,0.8,-99.9,29.91,WNW,296,0.0,0.0,255,0.00,,,0.00,0,Wunderground v.1.15,2016-02-10 12:45:00,
2016-02-10 06:50:00,1.0,-99.9,29.90,WNW,296,0.0,0.0,255,0.00,,,0.00,0,Wunderground v.1.15,2016-02-10 12:50:00,
2016-02-10 06:55:00,1.3,-99.9,29.91,WNW,296,0.0,0.0,255,0.00,,,0.00,0,Wunderground v.1.15,2016-02-10 12:55:00,
2016-02-10 07:00:00,1.4,-99.9,29.91,WNW,296,0.0,0.0,255,0.00,,,0.00,0,Wunderground v.1.15,2016-02-10 13:00:00,
2016-02-10 07:05:00,1.5,-99.9,29.91,WNW,296,0.0,0.0,255,0.00,,,0.00,0,Wunderground v.1.15,2016-02-10 13:05:00,
2016-02-10 07:10:00,1.7,-99.9,29.91,WNW,296,0.0,0.0,255,0.00,,,0.00,0,Wunderground v.1.15,2016-02-10 13:10:00,
2016-02-10 07:15:00,1.9,-99.9,29.92,WNW,296,0.0,0.0,255,0.00,,,0.00,0,Wunderground v.1.15,2016-02-10 13:15:00,
2016-02-10 07:20:00,1.9,-99.9,29.92,WNW,296,0.0,0.0,255,0.00,,,0.00,0,Wunderground v.1.15,2016-02-10 13:20:00,
2016-02-10 07:25:00,1.8,-99.9,29.92,WNW,296,0.0,0.0,255,0.00,,,0.00,0,Wunderground v.1.15,2016-02-10 13:25:00,
2016-02-10 07:30:00,1.8,-99.9,29.91,WNW,296,0.0,0.0,255,0.00,,,0.00,0,Wunderground v.1.15,2016-02-10 13:30:00,
2016-02-10 07:35:00,1.8,-99.9,29.92,WNW,296,0.0,0.0,255,0.00,,,0.00,0,Wunderground v.1.15,2016-02-10 13:35:00,
2016-02-10 07:40:00,1.9,-99.9,29.91,WNW,296,0.0,0.0,255,0.00,,,0.00,0,Wunderground v.1.15,2016-02-10 13:40:00,
2016-02-10 07:45:00,2.0,-99.9,29.92,WNW,296,0.0,0.0,255,0.00,,,0.00,0,Wunderground v.1.15,2016-02-10 13:45:00,
2016-02-10 07:50:00,2.1,-99.9,29.92,WNW,296,0.0,0.0,255,0.00,,,0.00,0,Wunderground v.1.15,2016-02-10 13:50:00,
2016-02-10 07:55:00,2.2,-99.9,29.92,WNW,296,0.0,0.0,255,0.00,,,0.00,0,Wunderground v.1.15,2016-02-10 13:55:00,
2016-02-10 08:00:00,2.2,-99.9,29.92,WNW,296,0.0,0.0,255,0.00,,,0.00,0,Wunderground v.1.15,2016-02-10 14:00:00,
2016-02-10 08:05:00,2.3,-99.9,29.92,WNW,296,0.0,0.0,255,0.00,,,0.00,0,Wunderground v.1.15,2016-02-10 14:05:00,
2016-02-10 08:10:00,2.5,-99.9,29.92,WNW,296,0.0,0.0,255,0.00,,,0.00,0,Wunderground v.1.15,2016-02-10 14:10:00,
2016-02-10 08:15:00,2.7,-99.9,29.92,WNW,296,0.0,0.0,255,0.00,,,0.00,0,Wunderground v.1.15,2016-02-10 14:15:00,
2016-02-10 08:20:00,2.9,-99.9,29.92,WNW,296,0.0,0.0,255,0.00,,,0.00,0,Wunderground v.1.15,2016-02-10 14:20:00,